Tracking 19832 objects as of 25-Aug-2019
HD Live streaming from Space Station
objects crossing your sky now

IRIDIUM 168

Track IRIDIUM 168 now!
10-day predictions
IRIDIUM 168 is classified as:


NORAD ID: 43924
Int'l Code: 2019-002C
Perigee: 783.2 km
Apogee: 786.4 km
Inclination: 86.4 °
Period: 100.4 minutes
Semi major axis: 7155 km
RCS: Unknown
Launch date: January 11, 2019
Source: United States (US)
Launch site: AIR FORCE WESTERN TEST RANGE (AFWTR)
aabbcc
Your satellite tracking list
Your tracking list is empty




NASA's NSSDC Master Catalog

Two Line Element Set (TLE):
1 43924U 19002C   19237.53309642  .00000056  00000-0  12973-4 0  9995
2 43924  86.3987 313.1626 0002241  84.4462 275.6989 14.34217239 32416
Source of the keplerian elements: AFSPC